Cloud_Cover
0 0 0 0 0 0 0 0 0 0 0 0 0 0 0 0 0 0 0 0 0 0 0 0 0 0 0 0 0 2 23 93 100 100 100 100 100 100 100 100 56 5 2 0 0
0 0 0 0 0 0 0 0 0 0 0 0 0 0 0 0 0 0 0 0 0 0 0 0 0 0 0 0 0 0 0 1 30 78 100 100 79 81 45 47 77 30 5 4 0
0 0 0 0 0 0 0 0 0 0 0 0 0 0 0 0 0 0 0 0 0 0 0 0 0 0 0 0 0 0 0 0 0 1 31 14 8 46 66 52 11 7 5 4 5
4 0 0 0 0 0 0 0 0 4 0 0 0 0 0 0 0 0 0 0 0 0 0 0 5 1 0 0 0 0 0 0 5 22 54 100 100 100 100 100 100 100 100 100 52
13 5 0 0 0 0 0 0 1 2 1 0 0 0 0 0 0 0 0 0 0 0 0 0 2 5 5 1 0 0 0 0 0 0 11 75 100 100 100 100 100 100 99 100 100
99 85 4 0 0 0 0 0 0 0 5 5 0 0 0 0 0 0 0 0 0 0 0 0 0 5 66 8 5 0 0 0 0 0 0 0 0 0 2 5 3 7 11 14 1
5 100 96 5 0 0 0 0 0 0 0 0 0 0 0 0 0 0 0 0 0 0 0 0 3 0 6 98 5 5 0 0 0 0 0 0 0 0 0 1 98 72 99 100 40
5 78 99 5 2 0 0 0 0 0 0 0 0 0 0 0 0 0 0 0 0 5 3 5 4 5 16 98 100 10 0 0 0 0 0 0 0 4 15 46 100 100 100 100 99
4 5 9 3 0 0 0 0 0 0 0 0 0 0 0 0 0 0 0 0 2 5 31 16 12 5 8 62 100 100 12 1 0 0 0 0 0 0 4 90 100 100 100 100 100
5 5 4 0 0 0 0 0 5 0 0 0 0 0 0 0 0 0 1 4 3 4 10 100 98 94 100 96 100 100 87 20 1 2 0 0 3 0 3 85 100 100 100 100 100
5 5 4 1 0 5 1 5 4 4 5 5 5 4 0 3 0 0 0 4 5 5 5 72 99 100 100 77 100 100 100 100 32 5 4 0 5 5 3 67 79 100 100 100 100
5 5 5 5 5 5 7 5 12 5 5 5 5 5 2 5 5 5 2 5 7 14 5 19 37 88 100 100 91 98 100 100 100 99 100 38 5 0 3 18 54 100 100 100 100
48 6 5 5 4 5 5 50 38 26 17 28 5 5 4 5 5 5 5 5 5 56 72 7 5 90 100 100 91 69 100 100 100 100 100 100 15 0 3 5 7 77 87 100 100
100 69 5 5 5 13 12 95 100 99 23 16 42 19 70 50 17 5 5 5 5 6 41 100 65 23 84 13 94 91 32 84 100 100 100 100 100 39 1 4 5 98 70 100 100
96 94 53 99 8 24 37 48 100 100 100 76 97 29 100 99 67 17 5 6 30 6 7 25 13 10 17 38 72 100 100 88 18 100 100 100 100 100 5 0 0 61 92 99 100
9 5 5 11 52 5 5 5 100 100 100 100 100 100 100 100 87 62 25 89 53 29 5 5 5 11 39 98 100 100 100 100 96 100 95 100 98 100 100 48 5 0 1 7 92
45 5 5 12 59 5 5 45 95 100 100 100 100 100 100 100 100 79 38 8 30 5 5 5 33 12 26 18 89 100 100 100 100 99 98 97 94 97 100 100 7 3 0 0 0
100 99 92 100 98 96 99 81 99 100 100 100 100 100 100 100 100 100 94 17 5 5 5 10 6 5 31 10 86 100 100 100 100 100 100 100 100 100 100 100 80 5 0 0 0
100 100 100 100 100 100 20 36 90 100 100 99 99 100 100 76 100 100 40 8 19 6 100 6 5 5 5 5 59 83 100 100 100 100 100 100 99 100 100 100 100 79 5 1 0
100 75 75 89 100 100 100 98 100 100 100 88 24 76 97 83 60 20 20 60 78 98 98 5 5 5 5 5 61 100 71 100 100 100 100 100 100 100 100 100 100 100 90 6 4
100 100 98 73 100 100 100 75 98 100 100 100 57 88 100 63 29 68 70 100 100 100 22 5 21 9 5 5 47 99 100 100 100 100 100 100 100 100 100 100 100 100 100 99 42
100 100 100 100 100 100 100 100 100 100 100 100 80 92 36 55 99 100 100 100 100 100 86 26 27 68 6 8 62 100 100 100 100 100 100 100 100 100 100 100 100 100 100 100 100
100 100 100 100 100 100 100 100 100 100 100 100 100 100 100 100 100 100 100 100 100 100 97 80 99 8 54 73 16 100 100 100 100 100 100 100 100 100 100 100 100 100 100 100 100
100 100 100 100 100 100 100 100 100 100 100 100 100 100 100 99 100 95 100 100 100 100 95 100 43 60 5 7 59 33 100 100 100 100 100 100 100 100 100 100 100 100 100 100 100
100 100 100 100 100 100 100 100 100 100 100 100 100 100 100 100 100 100 100 100 100 100 20 42 87 20 5 12 12 7 98 100 100 100 100 100 100 100 100 100 100 100 100 100 55
97 100 100 100 100 100 100 100 100 100 100 100 100 100 100 100 100 100 100 100 96 92 16 6 5 5 94 5 5 96 85 5 91 99 100 100 100 100 100 100 100 100 100 100 100
100 100 100 100 100 100 100 100 100 100 100 100 100 100 100 100 100 100 90 99 52 16 37 72 21 72 8 5 32 6 92 100 12 24 100 100 100 100 100 100 100 100 100 100 100